#timestamp,LO_Frequency,Hit,StdDev 
1553025615.6,286047000.9,N
1553025635.4,286047000.5,N
1553025655.3,286047001.2,N
1553025675.1,286046998.5,N
1553025695.8,286046999.1,N
1553025715.7,286046998.5,N
1553025735.5,286046999.6,N
1553025755.4,286046998.7,N
1553025775.2,286046999.0,N
1553025795.0,286046996.5,N
1553025795.9,286046996.5,N
1553025815.8,286046999.4,N
1553025835.6,286046999.5,N
1553025855.4,286046995.2,N
1553025875.3,286046995.7,N
1553025895.1,286046995.0,N
1553025915.9,286046997.7,N
1553025935.7,286046997.3,N
1553025955.5,286046996.1,N
1553025975.4,286046995.0,N
1553025995.2,286046997.6,N
1553026015.1,286046999.6,N
1553026016.0,286046999.6,N
1553026035.8,286046996.8,N
1553026055.6,286046995.6,N
1553026075.5,286046997.9,N
1553026095.3,286046997.0,N
1553026115.2,286046998.2,N
1553026135.9,286046998.6,N
1553026155.7,286046999.7,N
1553026175.6,286047002.3,N
1553026195.4,286047002.8,N
1553026215.2,286047002.7,N
1553026235.1,286046998.7,N
1553026236.0,286046998.7,N
1553026255.8,286046998.9,N
1553026275.7,286047000.0,N
1553026295.5,286047000.3,N
1553026315.3,286047001.0,N
1553026335.2,286047002.3,N
1553026355.0,286047000.1,N
1553026355.9,286047000.1,N
1553026375.8,286046998.6,N
1553026395.6,286047000.1,N
1553026415.4,286047002.4,N
1553026435.3,286046999.3,N
1553026455.1,286046999.6,N
1553026475.8,286046998.7,N
1553026495.7,286046997.2,N
1553026515.5,286046994.9,N
1553026535.4,286046997.6,N
1553026555.2,286046997.4,N
1553026575.0,286046997.9,N
1553026575.9,286046997.9,N
1553026595.8,286046998.0,N
1553026615.6,286046997.1,N
1553026635.4,286046999.0,N
1553026655.3,286046998.7,N
1553026675.1,286046996.8,N
1553026695.9,286046997.3,N
1553026715.7,286046997.0,N
1553026735.5,286046997.2,N
1553026755.4,286046997.1,N
1553026775.2,286046997.5,N
1553026795.0,286046998.0,N
1553026795.9,286046998.0,N
1553026815.8,286046997.8,N
1553026835.6,286046996.8,N
1553026855.5,286046997.4,N
1553026875.3,286046997.4,N
1553026895.1,286046997.4,N
1553026915.9,286046998.5,N
1553026935.7,286047001.2,N
1553026955.5,286046999.7,N
1553026975.4,286046999.8,N
1553026995.2,286046998.6,N
1553027015.1,286046999.0,N
1553027016.0,286046999.0,N
1553027035.8,286046998.1,N
1553027055.6,286046999.7,N
1553027075.5,286046999.8,N
1553027095.3,286047002.1,N
1553027115.2,286047004.1,Y
1553027135.9,286047003.5,P
1553027155.7,286047001.5,N
1553027175.6,286047002.4,N
1553027195.4,286047002.5,N
1553027215.2,286046999.9,N
1553027235.1,286047000.0,N
1553027236.0,286047000.0,N
1553027255.8,286047002.8,N
1553027275.7,286047002.8,N
1553027295.5,286047003.1,N
1553027315.3,286047003.1,N
1553027335.2,286047003.7,N
1553027355.0,286047003.7,N
1553027355.9,286047003.7,N
1553027375.8,286047003.2,N
1553027395.6,286047002.5,N
1553027415.4,286047000.3,N
1553027435.3,286046998.2,N
1553027455.1,286046998.1,N
1553027456.0,286046998.1,N
1553027475.8,286047000.2,N
1553027495.7,286047002.8,N
1553027515.5,286047001.9,N
1553027535.4,286046998.2,N
1553027555.2,286046998.8,N
1553027575.0,286046998.7,N
1553027575.9,286046998.7,N
1553027595.8,286046999.2,N
1553027615.6,286046998.9,N
1553027635.4,286046996.9,N
1553027655.3,286046999.1,N
1553027675.1,286047000.4,N
1553027695.9,286047000.3,N
1553027715.7,286047002.3,N
1553027735.5,286047002.6,N
1553027755.4,286047000.1,N
1553027775.2,286047002.2,N
1553027795.0,286047001.7,N
1553027795.9,286047001.7,N
1553027815.8,286046998.1,N
1553027835.6,286046998.2,N
1553027855.5,286046996.7,N
1553027875.3,286046999.0,N
1553027895.1,286046999.0,N
1553027915.9,286046998.6,N
1553027935.7,286046999.4,N
1553027955.5,286047000.3,N
1553027975.4,286047000.4,N
1553027995.2,286047000.4,N
1553028015.1,286047000.8,N
1553028016.0,286047000.8,N
1553028035.8,286047001.2,N
1553028055.6,286047002.4,N
1553028075.5,286047004.0,N
1553028095.3,286047004.1,N
1553028115.2,286047004.1,N
1553028135.9,286047002.7,N
1553028155.7,286047002.8,N
1553028175.6,286047002.8,N
1553028195.4,286046999.9,N
1553028215.2,286046999.7,N
1553028235.1,286047000.4,N
1553028236.0,286047000.4,N
1553028255.8,286047002.5,N
1553028275.7,286047002.2,N
1553028295.5,286047001.5,N
1553028315.3,286047002.2,N
1553028335.2,286047003.8,N
1553028355.0,286047002.3,N
1553028355.9,286047002.3,N
1553028375.7,286047000.3,N
1553028395.6,286047002.2,N
1553028415.4,286046999.9,N
1553028435.3,286046998.6,N
1553028455.1,286046999.9,N
1553028456.0,286046999.9,N
1553028475.8,286047000.6,N
1553028495.7,286047000.4,N
1553028515.5,286047000.6,N
1553028535.3,286046998.3,N
1553028555.2,286047000.4,N
1553028575.0,286046999.7,N
1553028575.9,286046999.7,N
1553028595.8,286047002.7,N
1553028615.6,286047004.0,N
1553028635.4,286047004.0,N
1553028655.3,286047000.6,N
1553028675.1,286047001.2,N
1553028695.8,286046998.9,N
1553028715.7,286046998.6,N
1553028735.5,286047000.0,N
1553028755.4,286047004.3,N
1553028775.2,286047003.1,N
1553028795.0,286047004.1,N
1553028795.9,286047004.1,N
1553028815.8,286047004.4,N
1553028835.6,286047001.3,N
1553028855.4,286047003.8,N
1553028875.3,286047004.2,N
1553028895.1,286047003.6,N
1553028915.9,286047004.3,N
1553028935.7,286047002.0,N
1553028955.5,286047002.2,N
1553028975.4,286047001.3,N
1553028995.2,286047001.7,N
1553029015.0,286047002.9,N
1553029016.0,286047002.9,N
1553029035.8,286047003.2,N
1553029055.6,286047003.7,N
1553029075.5,286047001.6,N
1553029095.3,286047002.6,N
1553029115.1,286047002.2,N
1553029135.9,286047001.7,N
1553029155.7,286047003.6,N
1553029175.5,286047003.5,N
1553029195.4,286047004.2,N
